Oak Ridge, TN

3:09 PM EDT on July 27, 2017 (GMT -0400)
Oak Ridge

Weather History for KOQT - January, 2013

Change the Weather History Date:

Wednesday, January 2, 2013

  Actual Average (KTYS) Record (KTYS)
Temperature  
Mean Temperature 39 °F -  
Max Temperature 42 °F 46 °F 70 °F (1952)
Min Temperature 36 °F 30 °F 0 °F (1928)
Degree Days  
Heating Degree Days 26    
Moisture  
Dew Point 33 °F    
Average Humidity 80    
Maximum Humidity 93    
Minimum Humidity 70    
Precipitation  
Precipitation 0.00 in - - ()
Sea Level Pressure  
Sea Level Pressure 30.15 in    
Wind  
Wind Speed 2 mph (NNE)    
Max Wind Speed 6 mph    
Max Gust Speed -    
Visibility 10 miles    
Events      
Averages and records for this station are not official NWS values.
T = Trace of Precipitation, MM = Missing Value Source: NWS Daily Summary

Daily Weather History Graph

Daily Weather History Graph

Search for Another Location

Airport or City:

Trip Planner

Search our weather history database for the weather conditions in past years. The results will help you decide how hot, cold, wet, or windy it might be!

Date:

Astronomy

Jan. 02, 2013 Rise Set
Actual Time 7:47 AM EST 5:34 PM EST
Civil Twilight 7:19 AM EST 6:03 PM EST
Nautical Twilight 6:47 AM EST 6:35 PM EST
Astronomical Twilight 6:16 AM EST 7:06 PM EST
Moon 10:55 PM EST (1/2) 10:39 AM EST (1/2)
Length of Visible Light 10h 43m
Length of Day
9h 46m
Waning Gibbous, 75% of the Moon is Illuminated
Jan 2
Waning Gibbous
Jan 4
Last Quarter
Jan 11
New
Jan 18
First Quarter
Jan 26
Full

Hourly Weather History & Observations

Time (EST) Temp. Windchill Dew Point Humidity Pressure Visibility Wind Dir Wind Speed Gust Speed Precip Events Conditions
12:10 AM 42.8 °F - 39.2 °F 87% 30.04 in 10.0 mi Calm Calm - 0.00 in   Overcast
12:49 AM 39.2 °F - 37.4 °F 93% 30.04 in 10.0 mi Calm Calm - 0.00 in   Overcast
12:53 AM 39.9 °F 37.8 °F 37.0 °F 89% 30.08 in 10.0 mi NNE 3.5 mph - 0.00 in   Overcast
1:07 AM 39.2 °F 37.0 °F 37.4 °F 93% 30.04 in 10.0 mi East 3.5 mph - N/A   Overcast
1:15 AM 39.2 °F 35.9 °F 37.4 °F 93% 30.05 in 10.0 mi Variable 4.6 mph - N/A   Overcast
1:53 AM 39.9 °F 36.7 °F 36.0 °F 86% 30.06 in 10.0 mi ENE 4.6 mph - N/A   Overcast
2:02 AM 39.2 °F - 35.6 °F 87% 30.05 in 10.0 mi Calm Calm - N/A   Overcast
2:46 AM 39.2 °F - 35.6 °F 87% 30.06 in 10.0 mi Calm Calm - N/A   Overcast
2:53 AM 39.0 °F - 36.0 °F 89% 30.09 in 10.0 mi Calm Calm - N/A   Overcast
3:53 AM 39.0 °F - 35.1 °F 86% 30.11 in 10.0 mi Calm Calm - N/A   Overcast
4:53 AM 37.9 °F 34.4 °F 34.0 °F 86% 30.12 in 10.0 mi North 4.6 mph - N/A   Overcast
5:53 AM 37.9 °F 35.5 °F 32.0 °F 79% 30.13 in 10.0 mi Variable 3.5 mph - N/A   Overcast
6:53 AM 37.0 °F 34.5 °F 32.0 °F 82% 30.16 in 10.0 mi North 3.5 mph - N/A   Overcast
7:03 AM 37.4 °F - 32.0 °F 81% 30.14 in 10.0 mi Calm Calm - N/A   Overcast
7:53 AM 37.0 °F 34.5 °F 32.0 °F 82% 30.17 in 10.0 mi Variable 3.5 mph - N/A   Overcast
8:43 AM 37.4 °F 33.8 °F 32.0 °F 81% 30.15 in 10.0 mi Variable 4.6 mph - N/A   Overcast
8:51 AM 37.4 °F 32.8 °F 32.0 °F 81% 30.16 in 10.0 mi Variable 5.8 mph - N/A   Overcast
8:53 AM 37.0 °F 33.3 °F 32.0 °F 82% 30.19 in 10.0 mi Variable 4.6 mph - N/A   Overcast
9:53 AM 37.0 °F 34.5 °F 30.9 °F 79% 30.20 in 10.0 mi Variable 3.5 mph - N/A   Overcast
10:53 AM 37.9 °F 33.5 °F 30.0 °F 73% 30.22 in 10.0 mi NNE 5.8 mph - N/A   Overcast
11:53 AM 39.9 °F - 30.9 °F 70% 30.21 in 10.0 mi Calm Calm - N/A   Overcast
12:53 PM 39.0 °F 35.7 °F 30.9 °F 73% 30.18 in 10.0 mi Variable 4.6 mph - N/A   Overcast
1:53 PM 39.0 °F 34.8 °F 30.9 °F 73% 30.17 in 10.0 mi North 5.8 mph - N/A   Overcast
2:53 PM 39.0 °F 36.8 °F 30.9 °F 73% 30.18 in 10.0 mi NNE 3.5 mph - N/A   Overcast
3:53 PM 39.0 °F 35.7 °F 30.0 °F 70% 30.18 in 10.0 mi NNE 4.6 mph - N/A   Overcast
4:53 PM 37.9 °F 35.5 °F 30.0 °F 73% 30.19 in 10.0 mi Variable 3.5 mph - N/A   Overcast
5:53 PM 37.0 °F 34.5 °F 28.9 °F 73% 30.21 in 10.0 mi NE 3.5 mph - N/A   Overcast
6:53 PM 36.0 °F - 28.9 °F 76% 30.21 in 10.0 mi Calm Calm - N/A   Overcast
7:53 PM 36.0 °F - 28.9 °F 76% 30.22 in 10.0 mi Calm Calm - N/A   Overcast
8:53 PM 37.0 °F - 28.9 °F 73% 30.22 in 10.0 mi Calm Calm - N/A   Overcast
9:53 PM 37.0 °F - 28.9 °F 73% 30.22 in 10.0 mi Calm Calm - N/A   Overcast
10:53 PM 37.0 °F - 28.9 °F 73% 30.23 in 10.0 mi Calm Calm - N/A   Overcast
11:53 PM 37.0 °F - 30.0 °F 76% 30.24 in 10.0 mi Calm Calm - N/A   Overcast